Regional Weather Roundup
Issued by NWS Albany, NY

Home | Current Version | Previous Version | Text Only | Print | Product List | Glossary On
Versions: 1 2 3 4 5 6 7 8 9 10 11 12 13 14 15 16 17 18 19 20 21 22 23 24 25 26 27 28 29 30 31 32 33 34 35 36 37 38 39 40 41 42 43 44 45 46 47 48 49 50
000
ASUS41 KALY 302010
RWRALY

NEW YORK STATE HOURLY WEATHER ROUNDUP
NATIONAL WEATHER SERVICE ALBANY NY
400 PM EDT SAT AUG 30 2014

NOTE: "FAIR" INDICATES FEW OR NO CLOUDS BELOW 12,000 FEET WITH NO
SIGNIFICANT WEATHER AND/OR NO OBSTRUCTIONS TO VISIBILITY.

NYZ032-033-038>043-046>054-057>066-NYZ062>081-302100-
EAST


CITY           SKY/WX    TMP DP  RH WIND       PRES   REMARKS
ALBANY         MOSUNNY   80  58  46 S16G22    30.11F
GLENS FALLS    MOSUNNY   77  59  53 S13       30.10F
POUGHKEEPSIE   CLOUDY    79  59  50 S8        30.15F
NEWBURGH       CLOUDY    77  61  57 SW7       30.18F
MONTGOMERY     CLOUDY    78  59  51 SW10      30.16F
WHITE PLAINS   CLOUDY    75  60  59 S10       30.19F
ISLIP          PTSUNNY   74  60  61 S13       30.20F
NEW YORK CITY  PTSUNNY   76  62  62 S14       30.19F
CENTRAL PARK   CLOUDY    75  61  61 VRB7      30.22F
$$

NYZ005>009-017-018-044>046-055-056-302100-
CENTRAL


CITY           SKY/WX    TMP DP  RH WIND       PRES   REMARKS
FULTON         SUNNY     82  64  54 S10       30.03F
SYRACUSE       MOSUNNY   83  63  50 S13       30.03F
ROME           MOSUNNY   79  62  56 S12       30.08F
ELMIRA         MOSUNNY   79  66  64 S14G20    30.08F
BINGHAMTON     CLOUDY    69  63  81 S10       30.16F
MONTICELLO     CLOUDY    70  61  73 S8        30.21F
$$

NYZ026>034-041>043-302100-
NORTH


CITY           SKY/WX    TMP DP  RH WIND       PRES   REMARKS
WATERTOWN      MOSUNNY   82  61  48 S10G20    30.00F
FORT DRUM      NOT AVBL
MASSENA        MOSUNNY   81  62  52 S12       30.00F
SARANAC LAKE   MOSUNNY   77  57  50 S15G23    30.07F
PLATTSBURGH    MOSUNNY   77  62  59 S17       30.03F
$$

NYZ001>004-010>016-019>021-302100-
WEST


CITY           SKY/WX    TMP DP  RH WIND       PRES   REMARKS
NIAGARA FALLS  PTSUNNY   85  65  51 SW14      29.95F
BUFFALO        TSTM      77  69  76 S15G31    30.01R VSB 3/4
DUNKIRK        PTSUNNY   88  68  51 S13G28    29.98F HX  91
JAMESTOWN      PTSUNNY   81  68  65 S13G20    30.05F
WELLSVILLE     MOSUNNY   81  66  60 S12G20    30.12F
ROCHESTER      MOSUNNY   86  67  52 S9G16     29.99F
PENN YAN       MOSUNNY   83  67  58 S12       30.05F
$$

             KEY
       WCI = WIND CHILL INDEX
       VSB = VISIBILITY
       HX  = HEAT INDEX
$$


USA.gov is the U.S. government's official web portal to all federal, state and local government web resources and services.